SAS73A ENGM-EKCH

Flight info

Callsign SAS73A
Flight time 0h 54m
Altitude 37000
Route ENGM/19R OKSAT L996 KELIN DCT TOPLA L996 ERNOV ERNOV3A
Aircraft A320/M-SDE3FGHIJ1RWXYZ/ALB1

Departure

Time 2026-04-30 17:56
Airport Oslo-Gardermoen International Airport (ENGM)

Arrival

Time 2026-04-30 18:51
Airport Copenhagen Kastrup Airport (EKCH)
Time Latitude Longitude Altitude Speed Heading
2026-04-30 17:39 60.19587 11.09355 679 ft 0 kts 195°
2026-04-30 17:46 60.19644 11.09401 676 ft 4 kts 212°
2026-04-30 17:47 60.19672 11.09477 679 ft 0 kts 286°
2026-04-30 17:49 60.19710 11.09211 678 ft 12 kts 286°
2026-04-30 17:50 60.19932 11.08757 678 ft 17 kts 16°
2026-04-30 17:51 60.20327 11.08984 677 ft 19 kts 17°
2026-04-30 17:52 60.20684 11.09193 675 ft 20 kts 17°
2026-04-30 17:53 60.21324 11.09560 670 ft 22 kts 16°
2026-04-30 17:54 60.21584 11.09217 673 ft 9 kts 278°
2026-04-30 17:55 60.21063 11.08846 674 ft 95 kts 196°
2026-04-30 17:56 60.17005 11.06314 2159 ft 176 kts 206°
2026-04-30 17:57 60.14924 10.98901 3223 ft 245 kts 249°
2026-04-30 17:58 60.14679 10.88657 5796 ft 260 kts 284°
2026-04-30 17:59 60.19491 10.79129 9263 ft 284 kts 358°
2026-04-30 18:00 60.25609 10.89668 11438 ft 346 kts 65°
2026-04-30 18:00 60.26543 11.03946 13455 ft 362 kts 111°
2026-04-30 18:01 60.23335 11.11520 14735 ft 362 kts 152°
2026-04-30 18:02 60.16670 11.19155 16536 ft 373 kts 153°
2026-04-30 18:02 60.09789 11.27014 18327 ft 385 kts 153°
2026-04-30 18:03 60.02721 11.35060 19997 ft 396 kts 152°
2026-04-30 18:04 59.95422 11.43331 21626 ft 407 kts 152°
2026-04-30 18:05 59.85402 11.54580 23776 ft 420 kts 152°
2026-04-30 18:06 59.75101 11.66100 25525 ft 432 kts 151°
2026-04-30 18:07 59.64438 11.77745 27141 ft 442 kts 158°
2026-04-30 18:08 59.55529 11.83054 28223 ft 451 kts 165°
2026-04-30 18:09 59.43348 11.89908 29662 ft 462 kts 164°
2026-04-30 18:10 59.30701 11.95395 30984 ft 470 kts 181°
2026-04-30 18:11 59.17644 11.94038 32615 ft 467 kts 184°
2026-04-30 18:11 59.07993 11.93021 34010 ft 463 kts 184°
2026-04-30 18:12 58.98395 11.91995 35229 ft 458 kts 184°
2026-04-30 18:13 58.92047 11.91311 35948 ft 456 kts 184°
2026-04-30 18:13 58.83643 11.90408 36843 ft 453 kts 184°
2026-04-30 18:14 58.76306 11.91413 37349 ft 453 kts 173°
2026-04-30 18:15 58.57611 11.96542 37383 ft 452 kts 173°
2026-04-30 18:16 58.45137 11.99870 37383 ft 452 kts 172°
2026-04-30 18:17 58.38939 12.01532 37394 ft 452 kts 172°
2026-04-30 18:18 58.29580 12.04029 37402 ft 452 kts 172°
2026-04-30 18:18 58.23334 12.05679 37410 ft 452 kts 172°
2026-04-30 18:19 58.17094 12.07337 37408 ft 452 kts 172°
2026-04-30 18:19 58.10899 12.08977 37412 ft 452 kts 172°
2026-04-30 18:20 58.04672 12.10605 37407 ft 452 kts 173°
2026-04-30 18:20 57.98448 12.12229 37411 ft 452 kts 172°
2026-04-30 18:21 57.92212 12.13861 37419 ft 452 kts 172°
2026-04-30 18:21 57.85975 12.15486 37417 ft 452 kts 172°
2026-04-30 18:22 57.79775 12.17085 37164 ft 451 kts 172°
2026-04-30 18:22 57.73540 12.18680 36647 ft 451 kts 172°
2026-04-30 18:22 57.70428 12.19485 36368 ft 449 kts 172°
2026-04-30 18:23 57.67332 12.20286 35904 ft 447 kts 172°
2026-04-30 18:23 57.64257 12.21080 35439 ft 445 kts 172°
2026-04-30 18:23 57.61232 12.21858 34964 ft 443 kts 172°
2026-04-30 18:23 57.58178 12.22639 34482 ft 442 kts 172°
2026-04-30 18:24 57.52111 12.24179 33470 ft 437 kts 172°
2026-04-30 18:24 57.49104 12.24943 32991 ft 434 kts 172°
2026-04-30 18:24 57.46132 12.25701 32513 ft 431 kts 172°
2026-04-30 18:25 57.43157 12.26455 32043 ft 429 kts 172°
2026-04-30 18:25 57.37263 12.27939 31117 ft 426 kts 172°
2026-04-30 18:25 57.34320 12.28682 30664 ft 425 kts 172°
2026-04-30 18:26 57.28527 12.30144 29759 ft 420 kts 172°
2026-04-30 18:26 57.25636 12.30871 29323 ft 417 kts 172°
2026-04-30 18:26 57.22766 12.31597 28913 ft 414 kts 172°
2026-04-30 18:27 57.17088 12.33015 28100 ft 410 kts 172°
2026-04-30 18:27 57.14258 12.33717 27689 ft 408 kts 172°
2026-04-30 18:28 57.08645 12.35123 26862 ft 406 kts 172°
2026-04-30 18:28 57.05856 12.35819 26452 ft 404 kts 172°
2026-04-30 18:28 57.00291 12.37196 25589 ft 403 kts 172°
2026-04-30 18:29 56.97513 12.37882 25145 ft 402 kts 172°
2026-04-30 18:29 56.89238 12.39928 23789 ft 401 kts 172°
2026-04-30 18:30 56.84614 12.41065 23000 ft 398 kts 171°
2026-04-30 18:30 56.78278 12.42615 21939 ft 391 kts 171°
2026-04-30 18:31 56.75585 12.43268 21492 ft 389 kts 171°
2026-04-30 18:31 56.70263 12.44571 20605 ft 383 kts 171°
2026-04-30 18:32 56.65036 12.45845 19722 ft 379 kts 171°
2026-04-30 18:32 56.62428 12.46477 19282 ft 377 kts 171°
2026-04-30 18:32 56.58087 12.47537 18526 ft 374 kts 171°
2026-04-30 18:33 56.55559 12.48151 18083 ft 370 kts 171°
2026-04-30 18:33 56.50478 12.49380 17247 ft 363 kts 170°
2026-04-30 18:33 56.48031 12.49968 17033 ft 346 kts 170°
2026-04-30 18:34 56.45664 12.50532 16410 ft 340 kts 170°
2026-04-30 18:34 56.40980 12.51654 15593 ft 339 kts 170°
2026-04-30 18:34 56.38645 12.52218 15207 ft 338 kts 169°
2026-04-30 18:35 56.36350 12.52771 14815 ft 337 kts 169°
2026-04-30 18:35 56.34021 12.53327 14419 ft 337 kts 169°
2026-04-30 18:35 56.31698 12.53880 13997 ft 336 kts 169°
2026-04-30 18:36 56.27081 12.54979 13195 ft 332 kts 170°
2026-04-30 18:36 56.24794 12.55518 12793 ft 330 kts 170°
2026-04-30 18:36 56.20255 12.56584 12016 ft 327 kts 170°
2026-04-30 18:37 56.18029 12.57109 11626 ft 326 kts 171°
2026-04-30 18:37 56.15784 12.57051 11406 ft 321 kts 190°
2026-04-30 18:37 56.13651 12.56057 11340 ft 312 kts 194°
2026-04-30 18:37 56.11567 12.55021 11271 ft 310 kts 194°
2026-04-30 18:38 56.09488 12.53978 11207 ft 310 kts 195°
2026-04-30 18:38 56.07414 12.52930 11141 ft 309 kts 195°
2026-04-30 18:38 56.05343 12.51878 11077 ft 309 kts 195°
2026-04-30 18:38 56.03270 12.50825 11008 ft 309 kts 195°
2026-04-30 18:39 56.01204 12.49774 10940 ft 308 kts 195°
2026-04-30 18:39 55.99169 12.48745 10876 ft 308 kts 195°
2026-04-30 18:39 55.97108 12.47708 10697 ft 307 kts 195°
2026-04-30 18:39 55.95056 12.46677 10458 ft 305 kts 195°
2026-04-30 18:40 55.93014 12.45655 10216 ft 303 kts 194°
2026-04-30 18:40 55.90989 12.44646 9943 ft 301 kts 194°
2026-04-30 18:40 55.88975 12.43640 9686 ft 300 kts 194°
2026-04-30 18:40 55.86968 12.42631 9427 ft 299 kts 194°
2026-04-30 18:41 55.84973 12.41630 9171 ft 298 kts 194°
2026-04-30 18:41 55.83004 12.40643 8917 ft 297 kts 194°
2026-04-30 18:41 55.81022 12.39651 8663 ft 295 kts 194°
2026-04-30 18:41 55.79047 12.38667 8410 ft 292 kts 194°
2026-04-30 18:42 55.77111 12.37703 8235 ft 285 kts 194°
2026-04-30 18:42 55.73383 12.35845 7890 ft 272 kts 194°
2026-04-30 18:42 55.71570 12.34945 7698 ft 269 kts 194°
2026-04-30 18:45 55.54258 12.26408 5367 ft 247 kts 194°
2026-04-30 18:45 55.52603 12.25601 5031 ft 246 kts 194°
2026-04-30 18:45 55.50916 12.25091 4471 ft 245 kts 177°
2026-04-30 18:46 55.49285 12.25697 4081 ft 239 kts 154°
2026-04-30 18:46 55.47938 12.27348 4007 ft 236 kts 132°
2026-04-30 18:46 55.46848 12.29519 4010 ft 237 kts 129°
2026-04-30 18:46 55.45911 12.31849 3835 ft 231 kts 108°
2026-04-30 18:47 55.45598 12.34578 3751 ft 229 kts 90°
2026-04-30 18:47 55.45740 12.37332 3625 ft 228 kts 73°
2026-04-30 18:47 55.46323 12.39896 3407 ft 224 kts 56°
2026-04-30 18:47 55.47295 12.42021 3147 ft 221 kts 40°
2026-04-30 18:48 55.48448 12.43793 2857 ft 220 kts 38°
2026-04-30 18:48 55.49599 12.45554 2562 ft 218 kts 38°
2026-04-30 18:48 55.50744 12.47309 2267 ft 218 kts 37°
2026-04-30 18:48 55.51885 12.49061 1974 ft 217 kts 37°
2026-04-30 18:49 55.53025 12.50812 1674 ft 217 kts 37°
2026-04-30 18:49 55.54163 12.52561 1382 ft 217 kts 38°
2026-04-30 18:49 55.55297 12.54305 1089 ft 216 kts 38°
2026-04-30 18:49 55.56406 12.56015 794 ft 203 kts 39°
2026-04-30 18:50 55.57428 12.57592 562 ft 188 kts 38°
2026-04-30 18:50 55.58381 12.59061 290 ft 176 kts 39°
2026-04-30 18:50 55.59256 12.60414 93 ft 157 kts 39°
2026-04-30 18:50 55.60013 12.61578 29 ft 128 kts 40°
2026-04-30 18:51 55.60493 12.62316 20 ft 47 kts 41°
2026-04-30 18:51 55.60687 12.62618 22 ft 37 kts 41°
2026-04-30 18:51 55.60883 12.62829 19 ft 24 kts 14°
2026-04-30 18:51 55.61028 12.62886 18 ft 22 kts 11°
2026-04-30 18:52 55.61116 12.62924 20 ft 11 kts 23°
2026-04-30 18:52 55.61179 12.63002 22 ft 10 kts 41°
2026-04-30 18:52 55.61241 12.63096 23 ft 13 kts 40°
2026-04-30 18:52 55.61275 12.63149 23 ft 2 kts 41°
2026-04-30 18:53 55.61291 12.63174 23 ft 4 kts 41°
2026-04-30 18:53 55.61320 12.63219 23 ft 8 kts 41°
2026-04-30 18:53 55.61375 12.63304 20 ft 10 kts 41°
2026-04-30 18:53 55.61416 12.63368 20 ft 6 kts 41°
2026-04-30 18:54 55.61455 12.63427 20 ft 9 kts 41°
2026-04-30 18:54 55.61514 12.63519 17 ft 8 kts 41°
2026-04-30 18:54 55.61547 12.63569 17 ft 7 kts 41°
2026-04-30 18:54 55.61590 12.63635 18 ft 4 kts 41°
2026-04-30 18:55 55.61615 12.63673 20 ft 6 kts 41°
2026-04-30 18:55 55.61700 12.63803 20 ft 5 kts 42°
2026-04-30 18:55 55.61725 12.63844 21 ft 5 kts 42°
2026-04-30 18:56 55.61798 12.63959 21 ft 6 kts 41°
2026-04-30 18:56 55.61807 12.63973 21 ft 2 kts 41°
2026-04-30 18:56 55.61825 12.64001 20 ft 5 kts 41°
2026-04-30 18:57 55.61884 12.64084 23 ft 7 kts 30°
2026-04-30 18:57 55.61919 12.64117 23 ft 5 kts 25°
2026-04-30 18:57 55.61959 12.64147 23 ft 8 kts 23°
2026-04-30 18:58 55.62090 12.64251 18 ft 14 kts 24°
2026-04-30 18:58 55.62186 12.64335 16 ft 17 kts 26°
2026-04-30 18:58 55.62258 12.64435 19 ft 13 kts 59°
2026-04-30 18:59 55.62374 12.64674 22 ft 14 kts
2026-04-30 19:00 55.62630 12.64653 20 ft 6 kts 347°
2026-04-30 19:00 55.62643 12.64589 20 ft 5 kts 278°
2026-04-30 19:00 55.62646 12.64557 21 ft 0 kts 281°